Time,TemperatureF,DewpointF,PressureIn,WindDirection,WindDirectionDegrees,WindSpeedMPH,WindSpeedGustMPH,Humidity,HourlyPrecipIn,Conditions,Clouds,dailyrainin,SoftwareType,DateUTC
2013-04-29 00:00:00,51.6,45.3,29.98,SSW,213,6.0,9.0,79,0.00,,,0.09,Wunderground v.1.15,2013-04-29 04:00:00,
2013-04-29 00:05:00,51.7,45.4,29.98,SSW,211,6.0,9.0,79,0.00,,,0.09,Wunderground v.1.15,2013-04-29 04:05:00,
2013-04-29 00:10:00,51.6,45.3,29.98,SW,221,6.0,9.0,79,0.00,,,0.09,Wunderground v.1.15,2013-04-29 04:10:00,
2013-04-29 00:15:00,51.5,44.9,29.97,SSE,154,4.0,9.0,78,0.00,,,0.09,Wunderground v.1.15,2013-04-29 04:15:00,
2013-04-29 00:20:00,51.5,44.9,29.98,SW,218,5.0,11.0,78,0.00,,,0.09,Wunderground v.1.15,2013-04-29 04:20:00,
2013-04-29 00:30:00,51.6,45.0,29.98,South,185,6.0,6.0,78,0.00,,,0.09,Wunderground v.1.15,2013-04-29 04:30:00,
2013-04-29 00:35:00,51.5,44.9,29.97,SE,133,5.0,9.0,78,0.00,,,0.09,Wunderground v.1.15,2013-04-29 04:35:00,
2013-04-29 00:40:00,51.5,44.5,29.97,SSW,206,4.0,9.0,77,0.00,,,0.09,Wunderground v.1.15,2013-04-29 04:40:00,
2013-04-29 00:45:00,51.6,44.6,29.97,West,265,4.0,9.0,77,0.00,,,0.09,Wunderground v.1.15,2013-04-29 04:45:00,
2013-04-29 00:50:00,51.7,44.7,29.97,SSW,204,4.0,4.0,77,0.00,,,0.09,Wunderground v.1.15,2013-04-29 04:50:00,
2013-04-29 00:55:00,51.7,44.7,29.97,SW,217,3.0,9.0,77,0.00,,,0.09,Wunderground v.1.15,2013-04-29 04:55:00,
2013-04-29 01:00:00,51.7,44.7,29.97,South,186,2.0,2.0,77,0.00,,,0.09,Wunderground v.1.15,2013-04-29 05:00:00,
2013-04-29 01:10:00,51.9,44.6,29.97,SSW,205,5.0,9.0,76,0.00,,,0.09,Wunderground v.1.15,2013-04-29 05:10:00,
2013-04-29 01:15:00,52.0,44.3,29.96,SW,221,6.0,9.0,75,0.00,,,0.09,Wunderground v.1.15,2013-04-29 05:15:00,
2013-04-29 01:20:00,52.0,44.3,29.96,SSW,213,5.0,10.0,75,0.00,,,0.09,Wunderground v.1.15,2013-04-29 05:20:00,
2013-04-29 01:25:00,52.1,44.4,29.96,SSE,150,5.0,10.0,75,0.00,,,0.09,Wunderground v.1.15,2013-04-29 05:25:00,
2013-04-29 01:30:00,52.0,44.3,29.97,SSW,209,5.0,9.0,75,0.00,,,0.09,Wunderground v.1.15,2013-04-29 05:30:00,
2013-04-29 01:40:00,51.5,44.5,29.96,SW,224,6.0,9.0,77,0.00,,,0.00,Wunderground v.1.15,2013-04-29 05:40:00,
2013-04-29 01:45:00,51.5,44.5,29.97,SSW,200,7.0,11.0,77,0.00,,,0.00,Wunderground v.1.15,2013-04-29 05:45:00,
2013-04-29 01:50:00,51.4,44.4,29.97,SSW,202,6.0,9.0,77,0.00,,,0.00,Wunderground v.1.15,2013-04-29 05:50:00,
2013-04-29 01:55:00,51.6,44.6,29.96,South,185,7.0,9.0,77,0.00,,,0.00,Wunderground v.1.15,2013-04-29 05:55:00,
2013-04-29 02:00:00,51.5,44.5,29.96,SSW,193,6.0,9.0,77,0.00,,,0.00,Wunderground v.1.15,2013-04-29 06:00:00,
2013-04-29 02:05:00,51.4,44.8,29.96,SSE,168,6.0,9.0,78,0.00,,,0.00,Wunderground v.1.15,2013-04-29 06:05:00,
2013-04-29 02:10:00,51.2,44.6,29.96,SW,217,6.0,6.0,78,0.00,,,0.00,Wunderground v.1.15,2013-04-29 06:10:00,
2013-04-29 02:20:00,51.1,44.8,29.96,SSW,198,7.0,7.0,79,0.00,,,0.00,Wunderground v.1.15,2013-04-29 06:20:00,
2013-04-29 02:25:00,50.8,44.5,29.96,SE,139,6.0,9.0,79,0.00,,,0.01,Wunderground v.1.15,2013-04-29 06:25:00,
2013-04-29 02:30:00,50.5,44.9,29.96,South,172,6.0,6.0,81,0.00,,,0.01,Wunderground v.1.15,2013-04-29 06:30:00,
2013-04-29 02:35:00,50.2,44.6,29.96,SSW,200,6.0,8.0,81,0.00,,,0.01,Wunderground v.1.15,2013-04-29 06:35:00,
2013-04-29 02:40:00,50.0,44.7,29.96,SSW,210,7.0,7.0,82,0.05,,,0.02,Wunderground v.1.15,2013-04-29 06:40:00,
2013-04-29 02:45:00,49.8,44.8,29.96,SW,214,6.0,9.0,83,0.05,,,0.02,Wunderground v.1.15,2013-04-29 06:45:00,
2013-04-29 02:55:00,49.3,45.0,29.95,South,186,3.0,9.0,85,0.07,,,0.03,Wunderground v.1.15,2013-04-29 06:55:00,
2013-04-29 03:00:00,49.1,44.8,29.95,SSE,157,2.0,9.0,85,0.07,,,0.04,Wunderground v.1.15,2013-04-29 07:00:00,
2013-04-29 03:05:00,49.0,44.7,29.95,SSE,164,2.0,9.0,85,0.06,,,0.04,Wunderground v.1.15,2013-04-29 07:05:00,
2013-04-29 03:10:00,49.0,44.7,29.95,SSE,152,2.0,2.0,85,0.04,,,0.04,Wunderground v.1.15,2013-04-29 07:10:00,
2013-04-29 03:15:00,49.0,44.7,29.95,SSW,206,1.0,9.0,85,0.00,,,0.04,Wunderground v.1.15,2013-04-29 07:15:00,
2013-04-29 03:20:00,49.1,44.8,29.95,SW,228,2.0,9.0,85,0.00,,,0.04,Wunderground v.1.15,2013-04-29 07:20:00,
2013-04-29 03:25:00,49.3,44.7,29.94,South,180,2.0,9.0,84,0.00,,,0.04,Wunderground v.1.15,2013-04-29 07:25:00,
2013-04-29 03:35:00,49.5,44.6,29.95,SW,215,3.0,4.0,83,0.00,,,0.05,Wunderground v.1.15,2013-04-29 07:35:00,
2013-04-29 03:40:00,49.6,44.6,29.94,SSW,199,2.0,2.0,83,0.00,,,0.05,Wunderground v.1.15,2013-04-29 07:40:00,
2013-04-29 03:45:00,49.7,44.4,29.94,SE,126,2.0,4.0,82,0.00,,,0.05,Wunderground v.1.15,2013-04-29 07:45:00,
2013-04-29 03:50:00,49.9,44.3,29.94,SW,221,3.0,3.0,81,0.00,,,0.05,Wunderground v.1.15,2013-04-29 07:50:00,
2013-04-29 03:55:00,50.1,44.2,29.94,SSW,195,3.0,9.0,80,0.00,,,0.05,Wunderground v.1.15,2013-04-29 07:55:00,
2013-04-29 04:00:00,50.3,44.0,29.94,SSW,208,3.0,3.0,79,0.00,,,0.05,Wunderground v.1.15,2013-04-29 08:00:00,
2013-04-29 04:05:00,50.5,44.2,29.94,SW,225,3.0,5.0,79,0.00,,,0.05,Wunderground v.1.15,2013-04-29 08:05:00,
2013-04-29 04:10:00,50.6,43.7,29.94,SSW,206,3.0,9.0,77,0.00,,,0.05,Wunderground v.1.15,2013-04-29 08:10:00,
2013-04-29 04:15:00,50.7,44.1,29.94,SSW,211,3.0,9.0,78,0.00,,,0.05,Wunderground v.1.15,2013-04-29 08:15:00,
2013-04-29 04:20:00,50.8,43.8,29.94,SW,220,4.0,9.0,77,0.00,,,0.05,Wunderground v.1.15,2013-04-29 08:20:00,
2013-04-29 04:30:00,51.0,43.7,29.94,SW,225,5.0,5.0,76,0.00,,,0.05,Wunderground v.1.15,2013-04-29 08:30:00,
2013-04-29 04:35:00,51.0,43.7,29.94,SSE,148,5.0,9.0,76,0.00,,,0.05,Wunderground v.1.15,2013-04-29 08:35:00,
2013-04-29 04:40:00,51.0,43.7,29.94,SW,225,4.0,9.0,76,0.00,,,0.05,Wunderground v.1.15,2013-04-29 08:40:00,
2013-04-29 04:45:00,51.0,44.0,29.94,SE,139,5.0,9.0,77,0.00,,,0.05,Wunderground v.1.15,2013-04-29 08:45:00,
2013-04-29 04:50:00,51.0,44.0,29.94,SSW,194,5.0,12.0,77,0.00,,,0.05,Wunderground v.1.15,2013-04-29 08:50:00,
2013-04-29 04:55:00,51.0,44.0,29.94,SW,217,5.0,12.0,77,0.00,,,0.05,Wunderground v.1.15,2013-04-29 08:55:00,
2013-04-29 05:05:00,51.4,43.7,29.93,South,190,7.0,12.0,75,0.00,,,0.05,Wunderground v.1.15,2013-04-29 09:05:00,
2013-04-29 05:10:00,51.4,43.7,29.94,WSW,238,8.0,10.0,75,0.00,,,0.05,Wunderground v.1.15,2013-04-29 09:10:00,
2013-04-29 05:15:00,51.5,43.8,29.93,SW,224,7.0,10.0,75,0.00,,,0.05,Wunderground v.1.15,2013-04-29 09:15:00,
2013-04-29 05:20:00,51.6,43.6,29.94,SSW,193,7.0,7.0,74,0.00,,,0.05,Wunderground v.1.15,2013-04-29 09:20:00,
2013-04-29 05:25:00,51.6,43.6,29.93,SW,223,6.0,11.0,74,0.00,,,0.05,Wunderground v.1.15,2013-04-29 09:25:00,
2013-04-29 05:30:00,51.7,43.3,29.94,SSW,212,6.0,6.0,73,0.00,,,0.05,Wunderground v.1.15,2013-04-29 09:30:00,
2013-04-29 05:35:00,51.7,43.3,29.94,ESE,118,6.0,9.0,73,0.00,,,0.05,Wunderground v.1.15,2013-04-29 09:35:00,
2013-04-29 05:45:00,51.7,43.3,29.94,SW,236,6.0,9.0,73,0.00,,,0.05,Wunderground v.1.15,2013-04-29 09:45:00,
2013-04-29 05:50:00,51.7,43.3,29.94,SSW,211,6.0,9.0,73,0.00,,,0.05,Wunderground v.1.15,2013-04-29 09:50:00,
2013-04-29 05:55:00,51.7,43.7,29.94,SW,226,5.0,9.0,74,0.00,,,0.05,Wunderground v.1.15,2013-04-29 09:55:00,
2013-04-29 06:00:00,51.7,43.7,29.94,SW,228,6.0,6.0,74,0.00,,,0.05,Wunderground v.1.15,2013-04-29 10:00:00,
2013-04-29 06:05:00,51.7,43.7,29.94,SSW,204,6.0,9.0,74,0.00,,,0.05,Wunderground v.1.15,2013-04-29 10:05:00,
2013-04-29 06:10:00,51.7,43.7,29.94,SSW,202,5.0,9.0,74,0.00,,,0.05,Wunderground v.1.15,2013-04-29 10:10:00,
2013-04-29 06:20:00,51.8,43.4,29.95,SSW,211,6.0,9.0,73,0.00,,,0.05,Wunderground v.1.15,2013-04-29 10:20:00,
2013-04-29 06:25:00,51.8,43.4,29.95,WSW,240,6.0,9.0,73,0.00,,,0.05,Wunderground v.1.15,2013-04-29 10:25:00,
2013-04-29 06:30:00,51.8,43.4,29.95,SSW,198,5.0,5.0,73,0.00,,,0.05,Wunderground v.1.15,2013-04-29 10:30:00,
2013-04-29 06:35:00,51.8,43.8,29.95,SSW,210,3.0,7.0,74,0.00,,,0.05,Wunderground v.1.15,2013-04-29 10:35:00,
2013-04-29 06:40:00,51.8,43.8,29.95,SSE,159,4.0,4.0,74,0.00,,,0.05,Wunderground v.1.15,2013-04-29 10:40:00,
2013-04-29 06:45:00,51.9,43.5,29.95,ESE,113,4.0,9.0,73,0.00,,,0.05,Wunderground v.1.15,2013-04-29 10:45:00,
2013-04-29 06:55:00,51.9,43.9,29.96,SSW,196,4.0,9.0,74,0.00,,,0.05,Wunderground v.1.15,2013-04-29 10:55:00,
2013-04-29 07:00:00,51.9,43.9,29.96,SSW,203,4.0,4.0,74,0.00,,,0.05,Wunderground v.1.15,2013-04-29 11:00:00,
2013-04-29 07:05:00,52.0,44.0,29.96,South,190,4.0,9.0,74,0.00,,,0.05,Wunderground v.1.15,2013-04-29 11:05:00,
2013-04-29 07:10:00,52.0,44.0,29.96,SSW,213,5.0,9.0,74,0.00,,,0.05,Wunderground v.1.15,2013-04-29 11:10:00,
2013-04-29 07:15:00,52.0,44.0,29.96,SSW,212,6.0,9.0,74,0.00,,,0.05,Wunderground v.1.15,2013-04-29 11:15:00,
2013-04-29 07:20:00,52.0,44.0,29.96,SW,226,7.0,12.0,74,0.00,,,0.05,Wunderground v.1.15,2013-04-29 11:20:00,
2013-04-29 07:25:00,52.1,44.1,29.96,SW,220,8.0,12.0,74,0.00,,,0.05,Wunderground v.1.15,2013-04-29 11:25:00,
2013-04-29 07:35:00,52.2,44.2,29.96,SSW,207,6.0,9.0,74,0.00,,,0.05,Wunderground v.1.15,2013-04-29 11:35:00,
2013-04-29 07:40:00,52.2,44.5,29.96,SW,234,6.0,9.0,75,0.00,,,0.05,Wunderground v.1.15,2013-04-29 11:40:00,
2013-04-29 07:45:00,52.2,44.5,29.97,SSW,211,5.0,9.0,75,0.00,,,0.05,Wunderground v.1.15,2013-04-29 11:45:00,
2013-04-29 07:50:00,52.3,44.6,29.97,SSE,164,5.0,9.0,75,0.00,,,0.05,Wunderground v.1.15,2013-04-29 11:50:00,
2013-04-29 07:55:00,52.5,44.4,29.97,SW,225,6.0,9.0,74,0.00,,,0.05,Wunderground v.1.15,2013-04-29 11:55:00,
2013-04-29 08:00:00,52.7,44.6,29.97,SSW,212,6.0,9.0,74,0.00,,,0.05,Wunderground v.1.15,2013-04-29 12:00:00,
2013-04-29 08:10:00,52.8,45.1,29.97,SW,227,4.0,4.0,75,0.00,,,0.05,Wunderground v.1.15,2013-04-29 12:10:00,
2013-04-29 08:15:00,53.0,44.9,29.97,SE,134,3.0,9.0,74,0.00,,,0.05,Wunderground v.1.15,2013-04-29 12:15:00,
2013-04-29 08:20:00,53.1,45.4,29.97,SSW,200,3.0,9.0,75,0.00,,,0.05,Wunderground v.1.15,2013-04-29 12:20:00,
2013-04-29 08:25:00,53.2,45.1,29.97,South,177,3.0,9.0,74,0.00,,,0.05,Wunderground v.1.15,2013-04-29 12:25:00,
2013-04-29 08:30:00,53.2,45.5,29.97,SW,220,3.0,9.0,75,0.00,,,0.05,Wunderground v.1.15,2013-04-29 12:30:00,
2013-04-29 08:35:00,53.3,45.6,29.97,SW,225,4.0,9.0,75,0.00,,,0.05,Wunderground v.1.15,2013-04-29 12:35:00,
2013-04-29 08:40:00,53.4,46.0,29.97,SSW,198,3.0,3.0,76,0.00,,,0.05,Wunderground v.1.15,2013-04-29 12:40:00,
2013-04-29 08:50:00,53.9,46.5,29.97,SW,235,1.0,9.0,76,0.00,,,0.05,Wunderground v.1.15,2013-04-29 12:50:00,
2013-04-29 08:55:00,54.2,46.4,29.97,SE,133,2.0,9.0,75,0.00,,,0.05,Wunderground v.1.15,2013-04-29 12:55:00,
2013-04-29 09:00:00,54.5,46.4,29.97,SE,144,4.0,4.0,74,0.00,,,0.05,Wunderground v.1.15,2013-04-29 13:00:00,
2013-04-29 09:05:00,54.7,46.9,29.97,SSW,197,4.0,9.0,75,0.00,,,0.05,Wunderground v.1.15,2013-04-29 13:05:00,
2013-04-29 09:10:00,55.0,47.6,29.97,SSW,192,2.0,2.0,76,0.00,,,0.05,Wunderground v.1.15,2013-04-29 13:10:00,
2013-04-29 09:15:00,55.5,47.3,29.97,South,169,3.0,3.0,74,0.00,,,0.05,Wunderground v.1.15,2013-04-29 13:15:00,
2013-04-29 09:20:00,56.4,48.2,29.97,SW,225,5.0,9.0,74,0.00,,,0.05,Wunderground v.1.15,2013-04-29 13:20:00,
2013-04-29 09:30:00,56.0,47.8,29.97,South,189,7.0,9.0,74,0.00,,,0.05,Wunderground v.1.15,2013-04-29 13:30:00,
2013-04-29 09:35:00,55.8,47.3,29.97,SW,227,8.0,10.0,73,0.00,,,0.05,Wunderground v.1.15,2013-04-29 13:35:00,
2013-04-29 09:40:00,55.8,47.6,29.97,SSW,198,8.0,9.0,74,0.00,,,0.05,Wunderground v.1.15,2013-04-29 13:40:00,
2013-04-29 09:45:00,55.5,47.3,29.97,SSW,207,9.0,9.0,74,0.00,,,0.05,Wunderground v.1.15,2013-04-29 13:45:00,
2013-04-29 09:50:00,55.3,47.9,29.97,SW,227,9.0,9.0,76,0.00,,,0.05,Wunderground v.1.15,2013-04-29 13:50:00,
2013-04-29 10:00:00,55.4,48.0,29.97,SSW,212,5.0,9.0,76,0.00,,,0.05,Wunderground v.1.15,2013-04-29 14:00:00,
2013-04-29 10:05:00,55.6,48.2,29.97,SW,236,5.0,9.0,76,0.00,,,0.05,Wunderground v.1.15,2013-04-29 14:05:00,
2013-04-29 10:10:00,55.7,48.2,29.98,South,188,7.0,7.0,76,0.00,,,0.05,Wunderground v.1.15,2013-04-29 14:10:00,
2013-04-29 10:15:00,55.9,48.4,29.98,SSW,213,7.0,9.0,76,0.00,,,0.05,Wunderground v.1.15,2013-04-29 14:15:00,
2013-04-29 10:20:00,55.7,48.6,29.98,SW,218,8.0,9.0,77,0.00,,,0.05,Wunderground v.1.15,2013-04-29 14:20:00,
2013-04-29 10:25:00,55.4,48.3,29.98,SW,220,9.0,9.0,77,0.00,,,0.05,Wunderground v.1.15,2013-04-29 14:25:00,
2013-04-29 10:30:00,55.1,48.7,29.98,WSW,241,7.0,11.0,79,0.00,,,0.05,Wunderground v.1.15,2013-04-29 14:30:00,
2013-04-29 10:40:00,53.9,48.5,29.98,SW,214,7.0,7.0,82,0.00,,,0.05,Wunderground v.1.15,2013-04-29 14:40:00,
2013-04-29 10:45:00,53.6,48.9,29.98,SW,222,7.0,9.0,84,0.00,,,0.05,Wunderground v.1.15,2013-04-29 14:45:00,
2013-04-29 10:50:00,53.5,49.1,29.98,SE,135,6.0,6.0,85,0.00,,,0.05,Wunderground v.1.15,2013-04-29 14:50:00,
2013-04-29 10:55:00,53.5,49.1,29.98,SW,223,3.0,9.0,85,0.00,,,0.05,Wunderground v.1.15,2013-04-29 14:55:00,
2013-04-29 11:00:00,53.4,48.7,29.98,SSW,209,3.0,3.0,84,0.00,,,0.05,Wunderground v.1.15,2013-04-29 15:00:00,
2013-04-29 11:05:00,53.5,49.1,29.98,SW,221,3.0,9.0,85,0.00,,,0.05,Wunderground v.1.15,2013-04-29 15:05:00,
2013-04-29 11:15:00,53.7,49.3,29.98,SE,140,4.0,4.0,85,0.00,,,0.05,Wunderground v.1.15,2013-04-29 15:15:00,
2013-04-29 11:20:00,54.2,49.5,29.98,SE,130,4.0,4.0,84,0.00,,,0.05,Wunderground v.1.15,2013-04-29 15:20:00,
2013-04-29 11:25:00,54.5,49.4,29.98,ESE,113,4.0,9.0,83,0.00,,,0.05,Wunderground v.1.15,2013-04-29 15:25:00,
2013-04-29 11:30:00,55.1,50.0,29.97,SSW,196,4.0,9.0,83,0.00,,,0.05,Wunderground v.1.15,2013-04-29 15:30:00,
2013-04-29 11:35:00,55.6,49.9,29.98,SSW,212,5.0,11.0,81,0.00,,,0.05,Wunderground v.1.15,2013-04-29 15:35:00,
2013-04-29 11:40:00,56.2,50.4,29.98,SSW,212,6.0,9.0,81,0.00,,,0.05,Wunderground v.1.15,2013-04-29 15:40:00,
2013-04-29 11:45:00,57.1,51.3,29.98,SE,132,6.0,9.0,81,0.00,,,0.05,Wunderground v.1.15,2013-04-29 15:45:00,
2013-04-29 11:50:00,57.6,51.1,29.98,SW,233,5.0,5.0,79,0.00,,,0.05,Wunderground v.1.15,2013-04-29 15:50:00,
2013-04-29 12:00:00,57.5,50.7,29.98,SE,134,6.0,9.0,78,0.00,,,0.05,Wunderground v.1.15,2013-04-29 16:00:00,
2013-04-29 12:05:00,57.6,50.8,29.98,SSW,202,6.0,9.0,78,0.00,,,0.05,Wunderground v.1.15,2013-04-29 16:05:00,
2013-04-29 12:10:00,57.9,50.7,29.97,South,184,5.0,5.0,77,0.00,,,0.05,Wunderground v.1.15,2013-04-29 16:10:00,
2013-04-29 12:15:00,58.2,51.0,29.97,SSE,161,5.0,9.0,77,0.00,,,0.05,Wunderground v.1.15,2013-04-29 16:15:00,
2013-04-29 12:20:00,58.3,50.8,29.97,SE,138,5.0,5.0,76,0.00,,,0.05,Wunderground v.1.15,2013-04-29 16:20:00,
2013-04-29 12:25:00,58.3,50.8,29.98,SSW,203,4.0,9.0,76,0.00,,,0.05,Wunderground v.1.15,2013-04-29 16:25:00,
2013-04-29 12:35:00,58.4,50.9,29.98,ESE,117,4.0,9.0,76,0.00,,,0.05,Wunderground v.1.15,2013-04-29 16:35:00,
2013-04-29 12:40:00,58.4,50.5,29.98,SE,140,4.0,4.0,75,0.00,,,0.05,Wunderground v.1.15,2013-04-29 16:40:00,
2013-04-29 12:45:00,58.6,51.1,29.98,South,175,4.0,9.0,76,0.00,,,0.05,Wunderground v.1.15,2013-04-29 16:45:00,
2013-04-29 12:50:00,58.8,50.9,29.97,South,180,4.0,4.0,75,0.00,,,0.05,Wunderground v.1.15,2013-04-29 16:50:00,
2013-04-29 12:55:00,59.0,51.1,29.97,South,176,5.0,5.0,75,0.00,,,0.05,Wunderground v.1.15,2013-04-29 16:55:00,
2013-04-29 13:00:00,59.6,52.0,29.97,SW,219,5.0,9.0,76,0.00,,,0.05,Wunderground v.1.15,2013-04-29 17:00:00,
2013-04-29 13:10:00,60.8,52.5,29.97,South,175,7.0,13.0,74,0.00,,,0.05,Wunderground v.1.15,2013-04-29 17:10:00,
2013-04-29 13:15:00,60.8,51.7,29.97,SW,219,9.0,13.0,72,0.00,,,0.05,Wunderground v.1.15,2013-04-29 17:15:00,
2013-04-29 13:20:00,61.0,51.5,29.97,SSW,212,8.0,8.0,71,0.00,,,0.05,Wunderground v.1.15,2013-04-29 17:20:00,
2013-04-29 13:25:00,60.5,51.0,29.97,South,190,7.0,9.0,71,0.00,,,0.05,Wunderground v.1.15,2013-04-29 17:25:00,
2013-04-29 13:30:00,60.3,51.2,29.97,ESE,112,6.0,10.0,72,0.00,,,0.05,Wunderground v.1.15,2013-04-29 17:30:00,
2013-04-29 13:35:00,60.0,51.3,29.97,South,180,6.0,10.0,73,0.00,,,0.05,Wunderground v.1.15,2013-04-29 17:35:00,
2013-04-29 13:45:00,59.5,51.2,29.97,SSE,147,6.0,9.0,74,0.00,,,0.05,Wunderground v.1.15,2013-04-29 17:45:00,
2013-04-29 13:50:00,59.1,50.8,29.98,SW,220,6.0,6.0,74,0.00,,,0.05,Wunderground v.1.15,2013-04-29 17:50:00,
2013-04-29 13:55:00,58.8,50.9,29.97,WSW,255,7.0,7.0,75,0.00,,,0.05,Wunderground v.1.15,2013-04-29 17:55:00,
2013-04-29 14:00:00,58.9,51.3,29.97,SE,135,5.0,5.0,76,0.00,,,0.05,Wunderground v.1.15,2013-04-29 18:00:00,
2013-04-29 14:05:00,58.8,50.5,29.98,SSW,194,4.0,9.0,74,0.00,,,0.05,Wunderground v.1.15,2013-04-29 18:05:00,
2013-04-29 14:10:00,58.6,50.7,29.97,SSW,196,5.0,9.0,75,0.00,,,0.05,Wunderground v.1.15,2013-04-29 18:10:00,
2013-04-29 14:15:00,58.4,50.5,29.97,South,184,6.0,9.0,75,0.00,,,0.05,Wunderground v.1.15,2013-04-29 18:15:00,
2013-04-29 14:25:00,59.0,51.8,29.97,ESE,121,5.0,9.0,77,0.00,,,0.05,Wunderground v.1.15,2013-04-29 18:25:00,
2013-04-29 14:30:00,59.3,51.4,29.97,ESE,113,5.0,5.0,75,0.00,,,0.05,Wunderground v.1.15,2013-04-29 18:30:00,
2013-04-29 14:35:00,59.0,50.7,29.98,SSE,148,7.0,8.0,74,0.00,,,0.05,Wunderground v.1.15,2013-04-29 18:35:00,
2013-04-29 14:40:00,59.0,51.1,29.97,SE,132,8.0,8.0,75,0.00,,,0.05,Wunderground v.1.15,2013-04-29 18:40:00,
2013-04-29 14:45:00,59.3,51.4,29.97,SSW,211,6.0,9.0,75,0.00,,,0.05,Wunderground v.1.15,2013-04-29 18:45:00,
2013-04-29 14:50:00,59.5,51.6,29.97,SE,130,6.0,6.0,75,0.00,,,0.05,Wunderground v.1.15,2013-04-29 18:50:00,
2013-04-29 15:00:00,60.2,52.2,29.97,SSE,150,7.0,9.0,75,0.00,,,0.05,Wunderground v.1.15,2013-04-29 19:00:00,
2013-04-29 15:05:00,60.5,51.4,29.97,ESE,116,7.0,9.0,72,0.00,,,0.05,Wunderground v.1.15,2013-04-29 19:05:00,
2013-04-29 15:10:00,60.3,52.0,29.97,SSW,194,8.0,8.0,74,0.00,,,0.05,Wunderground v.1.15,2013-04-29 19:10:00,
2013-04-29 15:15:00,60.4,51.7,29.97,SSE,154,8.0,9.0,73,0.00,,,0.05,Wunderground v.1.15,2013-04-29 19:15:00,
2013-04-29 15:20:00,60.4,52.1,29.97,SE,141,7.0,7.0,74,0.00,,,0.05,Wunderground v.1.15,2013-04-29 19:20:00,
2013-04-29 15:30:00,61.0,53.0,29.97,SW,215,6.0,9.0,75,0.00,,,0.05,Wunderground v.1.15,2013-04-29 19:30:00,
2013-04-29 15:35:00,61.1,52.4,29.97,SSW,193,6.0,9.0,73,0.00,,,0.05,Wunderground v.1.15,2013-04-29 19:35:00,
2013-04-29 15:40:00,61.0,53.0,29.96,South,190,5.0,5.0,75,0.00,,,0.05,Wunderground v.1.15,2013-04-29 19:40:00,
2013-04-29 15:50:00,61.3,53.3,29.96,South,182,4.0,4.0,75,0.00,,,0.05,Wunderground v.1.15,2013-04-29 19:50:00,
2013-04-29 15:55:00,62.2,53.1,29.96,SSW,194,5.0,12.0,72,0.00,,,0.05,Wunderground v.1.15,2013-04-29 19:55:00,
2013-04-29 16:00:00,62.5,52.6,29.96,SW,226,7.0,9.0,70,0.00,,,0.05,Wunderground v.1.15,2013-04-29 20:00:00,
2013-04-29 16:05:00,62.3,53.2,29.96,SW,214,8.0,11.0,72,0.00,,,0.05,Wunderground v.1.15,2013-04-29 20:05:00,
2013-04-29 16:10:00,62.8,53.3,29.96,SSE,147,6.0,6.0,71,0.00,,,0.05,Wunderground v.1.15,2013-04-29 20:10:00,
2013-04-29 16:15:00,62.8,53.3,29.96,SW,215,5.0,9.0,71,0.00,,,0.05,Wunderground v.1.15,2013-04-29 20:15:00,
2013-04-29 16:25:00,62.5,53.0,29.96,South,191,5.0,8.0,71,0.00,,,0.05,Wunderground v.1.15,2013-04-29 20:25:00,
2013-04-29 16:30:00,62.1,53.0,29.96,SW,219,6.0,6.0,72,0.00,,,0.05,Wunderground v.1.15,2013-04-29 20:30:00,
2013-04-29 16:35:00,62.0,52.1,29.96,SSW,193,6.0,9.0,70,0.00,,,0.05,Wunderground v.1.15,2013-04-29 20:35:00,
2013-04-29 16:40:00,62.0,52.9,29.96,SW,227,6.0,9.0,72,0.00,,,0.05,Wunderground v.1.15,2013-04-29 20:40:00,
2013-04-29 16:45:00,62.1,52.6,29.95,SW,215,7.0,9.0,71,0.00,,,0.05,Wunderground v.1.15,2013-04-29 20:45:00,
2013-04-29 16:50:00,62.4,53.3,29.95,SE,124,7.0,7.0,72,0.00,,,0.05,Wunderground v.1.15,2013-04-29 20:50:00,
2013-04-29 17:00:00,63.0,52.7,29.95,SE,144,4.0,9.0,69,0.00,,,0.05,Wunderground v.1.15,2013-04-29 21:00:00,
2013-04-29 17:05:00,62.9,53.0,29.95,SSE,157,5.0,9.0,70,0.00,,,0.05,Wunderground v.1.15,2013-04-29 21:05:00,
2013-04-29 17:10:00,62.8,52.5,29.95,SSW,192,6.0,9.0,69,0.00,,,0.05,Wunderground v.1.15,2013-04-29 21:10:00,
2013-04-29 17:15:00,62.2,52.3,29.95,SW,217,6.0,9.0,70,0.00,,,0.05,Wunderground v.1.15,2013-04-29 21:15:00,
2013-04-29 17:20:00,61.9,52.4,29.95,SE,132,5.0,5.0,71,0.00,,,0.05,Wunderground v.1.15,2013-04-29 21:20:00,
2013-04-29 17:25:00,61.7,52.2,29.96,SE,146,5.0,9.0,71,0.00,,,0.05,Wunderground v.1.15,2013-04-29 21:25:00,
2013-04-29 17:30:00,61.9,52.8,29.95,SSW,205,5.0,5.0,72,0.00,,,0.05,Wunderground v.1.15,2013-04-29 21:30:00,
2013-04-29 17:40:00,62.1,52.2,29.96,ESE,114,3.0,9.0,70,0.00,,,0.05,Wunderground v.1.15,2013-04-29 21:40:00,
2013-04-29 17:45:00,62.0,52.5,29.96,SSW,205,3.0,9.0,71,0.00,,,0.05,Wunderground v.1.15,2013-04-29 21:45:00,
2013-04-29 17:50:00,61.8,52.3,29.96,SSW,207,3.0,3.0,71,0.00,,,0.05,Wunderground v.1.15,2013-04-29 21:50:00,
2013-04-29 17:55:00,61.6,52.1,29.96,SSW,198,4.0,4.0,71,0.00,,,0.05,Wunderground v.1.15,2013-04-29 21:55:00,
2013-04-29 18:05:00,61.4,52.3,29.96,SSW,194,4.0,9.0,72,0.00,,,0.05,Wunderground v.1.15,2013-04-29 22:05:00,
2013-04-29 18:10:00,61.3,52.2,29.96,South,190,4.0,9.0,72,0.00,,,0.05,Wunderground v.1.15,2013-04-29 22:10:00,
2013-04-29 18:20:00,60.9,51.8,29.97,SSE,150,4.0,4.0,72,0.00,,,0.05,Wunderground v.1.15,2013-04-29 22:20:00,
2013-04-29 18:30:00,60.9,52.2,29.97,South,184,4.0,4.0,73,0.00,,,0.05,Wunderground v.1.15,2013-04-29 22:30:00,
2013-04-29 18:35:00,60.8,52.1,29.97,SE,144,4.0,9.0,73,0.00,,,0.05,Wunderground v.1.15,2013-04-29 22:35:00,
2013-04-29 18:40:00,60.7,52.0,29.97,ESE,113,3.0,3.0,73,0.00,,,0.05,Wunderground v.1.15,2013-04-29 22:40:00,
2013-04-29 18:45:00,60.6,51.9,29.97,SE,130,2.0,5.0,73,0.00,,,0.05,Wunderground v.1.15,2013-04-29 22:45:00,
2013-04-29 18:50:00,60.6,51.9,29.97,South,180,2.0,9.0,73,0.00,,,0.05,Wunderground v.1.15,2013-04-29 22:50:00,
2013-04-29 18:55:00,60.5,52.2,29.97,SSE,164,2.0,9.0,74,0.00,,,0.05,Wunderground v.1.15,2013-04-29 22:55:00,
2013-04-29 19:05:00,60.3,51.6,29.97,SSW,207,2.0,9.0,73,0.00,,,0.05,Wunderground v.1.15,2013-04-29 23:05:00,
2013-04-29 19:10:00,60.3,52.0,29.97,SE,127,2.0,2.0,74,0.00,,,0.05,Wunderground v.1.15,2013-04-29 23:10:00,
2013-04-29 19:15:00,60.3,52.0,29.98,SSE,155,2.0,9.0,74,0.00,,,0.05,Wunderground v.1.15,2013-04-29 23:15:00,
2013-04-29 19:20:00,60.3,51.6,29.98,SSW,213,2.0,2.0,73,0.00,,,0.05,Wunderground v.1.15,2013-04-29 23:20:00,
2013-04-29 19:25:00,60.2,51.5,29.98,SE,139,2.0,9.0,73,0.00,,,0.05,Wunderground v.1.15,2013-04-29 23:25:00,
2013-04-29 19:30:00,60.0,51.3,29.98,SW,216,3.0,10.0,73,0.00,,,0.05,Wunderground v.1.15,2013-04-29 23:30:00,
2013-04-29 19:40:00,59.7,51.4,29.98,South,186,3.0,3.0,74,0.00,,,0.05,Wunderground v.1.15,2013-04-29 23:40:00,
2013-04-29 19:45:00,59.6,51.3,29.99,SSW,203,2.0,9.0,74,0.00,,,0.05,Wunderground v.1.15,2013-04-29 23:45:00,
2013-04-29 19:55:00,59.4,51.1,29.99,SSW,196,2.0,9.0,74,0.00,,,0.05,Wunderground v.1.15,2013-04-29 23:55:00,
2013-04-29 20:00:00,59.4,51.5,29.99,SSE,152,2.0,2.0,75,0.00,,,0.05,Wunderground v.1.15,2013-04-30 00:00:00,
2013-04-29 20:05:00,59.3,51.4,29.99,SSW,192,1.0,9.0,75,0.00,,,0.05,Wunderground v.1.15,2013-04-30 00:05:00,
2013-04-29 20:10:00,59.2,51.3,29.99,SE,136,1.0,9.0,75,0.00,,,0.05,Wunderground v.1.15,2013-04-30 00:10:00,
2013-04-29 20:15:00,59.1,51.2,29.99,ESE,113,2.0,9.0,75,0.00,,,0.05,Wunderground v.1.15,2013-04-30 00:15:00,
2013-04-29 20:20:00,59.0,51.1,29.99,SE,140,3.0,3.0,75,0.00,,,0.05,Wunderground v.1.15,2013-04-30 00:20:00,
2013-04-29 20:25:00,58.9,51.3,29.99,ESE,120,2.0,9.0,76,0.00,,,0.05,Wunderground v.1.15,2013-04-30 00:25:00,
2013-04-29 20:35:00,58.6,51.1,29.99,SSW,206,2.0,9.0,76,0.00,,,0.05,Wunderground v.1.15,2013-04-30 00:35:00,
2013-04-29 20:40:00,58.5,51.0,30.00,SW,219,2.0,9.0,76,0.00,,,0.05,Wunderground v.1.15,2013-04-30 00:40:00,
2013-04-29 20:45:00,58.4,50.9,30.00,SW,231,2.0,9.0,76,0.00,,,0.05,Wunderground v.1.15,2013-04-30 00:45:00,
2013-04-29 20:50:00,58.3,51.1,30.00,SW,214,2.0,9.0,77,0.00,,,0.05,Wunderground v.1.15,2013-04-30 00:50:00,
2013-04-29 20:55:00,58.2,51.0,30.00,South,176,2.0,9.0,77,0.00,,,0.05,Wunderground v.1.15,2013-04-30 00:55:00,
2013-04-29 21:05:00,58.0,51.2,30.00,SSW,211,2.0,2.0,78,0.00,,,0.05,Wunderground v.1.15,2013-04-30 01:05:00,
2013-04-29 21:10:00,57.8,51.0,30.01,South,169,1.0,1.0,78,0.00,,,0.05,Wunderground v.1.15,2013-04-30 01:10:00,
2013-04-29 21:15:00,57.7,50.9,30.01,South,190,1.0,9.0,78,0.00,,,0.05,Wunderground v.1.15,2013-04-30 01:15:00,
2013-04-29 21:20:00,57.6,50.8,30.01,SSW,206,1.0,1.0,78,0.00,,,0.05,Wunderground v.1.15,2013-04-30 01:20:00,
2013-04-29 21:25:00,57.5,51.0,30.01,SSE,168,1.0,9.0,79,0.00,,,0.05,Wunderground v.1.15,2013-04-30 01:25:00,
2013-04-29 21:35:00,57.3,50.8,30.02,SW,235,1.0,9.0,79,0.00,,,0.05,Wunderground v.1.15,2013-04-30 01:35:00,
2013-04-29 21:40:00,57.2,50.7,30.02,SW,216,2.0,2.0,79,0.00,,,0.05,Wunderground v.1.15,2013-04-30 01:40:00,
2013-04-29 21:45:00,57.1,50.6,30.02,SW,222,3.0,9.0,79,0.00,,,0.05,Wunderground v.1.15,2013-04-30 01:45:00,
2013-04-29 21:50:00,57.1,50.6,30.02,SW,218,4.0,9.0,79,0.00,,,0.05,Wunderground v.1.15,2013-04-30 01:50:00,
2013-04-29 21:55:00,57.1,50.6,30.02,SW,235,4.0,9.0,79,0.00,,,0.05,Wunderground v.1.15,2013-04-30 01:55:00,
2013-04-29 22:05:00,57.0,50.5,30.02,SSW,209,3.0,9.0,79,0.00,,,0.05,Wunderground v.1.15,2013-04-30 02:05:00,
2013-04-29 22:10:00,56.9,50.8,30.02,South,178,4.0,4.0,80,0.00,,,0.05,Wunderground v.1.15,2013-04-30 02:10:00,
2013-04-29 22:15:00,56.8,50.7,30.03,SSW,204,4.0,9.0,80,0.00,,,0.05,Wunderground v.1.15,2013-04-30 02:15:00,
2013-04-29 22:20:00,56.8,50.7,30.03,SSW,212,3.0,9.0,80,0.00,,,0.05,Wunderground v.1.15,2013-04-30 02:20:00,
2013-04-29 22:25:00,56.7,50.6,30.03,SSE,157,3.0,9.0,80,0.00,,,0.05,Wunderground v.1.15,2013-04-30 02:25:00,
2013-04-29 22:30:00,56.7,50.6,30.02,South,179,2.0,9.0,80,0.00,,,0.05,Wunderground v.1.15,2013-04-30 02:30:00,
2013-04-29 22:40:00,56.6,50.8,30.02,ESE,121,3.0,9.0,81,0.00,,,0.05,Wunderground v.1.15,2013-04-30 02:40:00,
2013-04-29 22:45:00,56.5,50.7,30.02,SSW,199,3.0,9.0,81,0.00,,,0.05,Wunderground v.1.15,2013-04-30 02:45:00,
2013-04-29 22:50:00,56.5,50.7,30.02,SW,214,3.0,9.0,81,0.00,,,0.05,Wunderground v.1.15,2013-04-30 02:50:00,
2013-04-29 22:55:00,56.4,50.6,30.02,SSW,209,3.0,9.0,81,0.00,,,0.05,Wunderground v.1.15,2013-04-30 02:55:00,
2013-04-29 23:00:00,56.3,50.9,30.02,SSE,153,3.0,3.0,82,0.00,,,0.05,Wunderground v.1.15,2013-04-30 03:00:00,
2013-04-29 23:05:00,56.2,50.8,30.02,SSW,196,4.0,4.0,82,0.00,,,0.05,Wunderground v.1.15,2013-04-30 03:05:00,
2013-04-29 23:10:00,56.2,50.8,30.02,SSW,207,3.0,3.0,82,0.00,,,0.05,Wunderground v.1.15,2013-04-30 03:10:00,
2013-04-29 23:20:00,56.0,50.9,30.02,SW,217,2.0,9.0,83,0.00,,,0.05,Wunderground v.1.15,2013-04-30 03:20:00,
2013-04-29 23:25:00,56.0,50.9,30.02,SW,223,2.0,9.0,83,0.00,,,0.05,Wunderground v.1.15,2013-04-30 03:25:00,
2013-04-29 23:30:00,56.1,50.7,30.02,SW,216,4.0,9.0,82,0.00,,,0.05,Wunderground v.1.15,2013-04-30 03:30:00,
2013-04-29 23:35:00,56.1,50.7,30.02,SSW,199,5.0,9.0,82,0.00,,,0.05,Wunderground v.1.15,2013-04-30 03:35:00,
2013-04-29 23:40:00,56.1,51.0,30.02,SSW,203,3.0,9.0,83,0.00,,,0.05,Wunderground v.1.15,2013-04-30 03:40:00,
2013-04-29 23:45:00,56.0,50.9,30.02,SW,230,3.0,9.0,83,0.00,,,0.05,Wunderground v.1.15,2013-04-30 03:45:00,
2013-04-29 23:55:00,56.0,50.9,30.02,SSE,163,2.0,9.0,83,0.00,,,0.05,Wunderground v.1.15,2013-04-30 03:55:00,